#timestamp,LO_Frequency,Hit,StdDev 
1506506415.7,286046998.0,N
1506506435.5,286046996.4,N
1506506455.3,286046995.6,N
1506506475.2,286046996.1,N
1506506495.0,286046994.3,N
1506506495.9,286046994.3,N
1506506515.7,286046993.6,N
1506506535.6,286046997.6,N
1506506555.4,286046995.4,N
1506506575.2,286046994.4,N
1506506595.1,286046995.2,N
1506506596.0,286046995.2,N
1506506615.8,286046997.6,N
1506506635.6,286046995.5,N
1506506655.5,286046992.3,N
1506506675.3,286046991.0,Y
1506506695.1,286046997.4,P
1506506715.9,286046999.1,N
1506506735.7,286046999.3,N
1506506755.5,286046996.9,N
1506506775.4,286047001.2,N
1506506795.2,286046999.1,N
1506506815.0,286046995.8,N
1506506815.9,286046995.8,N
1506506835.8,286046999.1,N
1506506855.6,286046998.1,N
1506506875.4,286046995.2,N
1506506895.3,286046993.7,Y
1506506915.1,286046999.3,P
1506506916.0,286046999.3,N
1506506935.8,286046995.1,P
1506506955.7,286046995.8,N
1506506975.5,286046993.5,Y
1506506995.3,286046995.0,P
1506507015.2,286046995.2,P
1506507035.9,286046997.6,N
1506507055.7,286047002.6,N
1506507075.5,286047003.3,N
1506507095.4,286046998.2,N
1506507115.2,286047001.2,N
1506507135.0,286046998.9,N
1506507135.9,286046998.9,N
1506507155.8,286046998.7,N
1506507175.6,286046995.0,N
1506507195.4,286046994.6,N
1506507215.3,286046992.8,N
1506507235.1,286046988.7,Y
1506507255.8,286046993.5,P
1506507275.7,286046995.8,N
1506507295.5,286046993.6,P
1506507315.3,286046994.0,Y
1506507335.2,286046998.3,P
1506507355.9,286046995.6,N
1506507375.7,286046997.6,N
1506507395.6,286046995.3,Y
1506507415.4,286046997.1,P
1506507435.2,286046999.3,P
1506507455.1,286046999.4,N
1506507456.0,286046999.4,N
1506507475.8,286046996.7,N
1506507495.6,286046997.3,N
1506507515.5,286046995.3,Y
1506507535.3,286046997.3,P
1506507555.1,286046994.0,P
1506507575.9,286046995.0,N
1506507595.7,286046995.0,Y
1506507615.5,286046997.0,P
1506507635.4,286046999.5,N
1506507655.2,286046998.3,N
1506507675.0,286046999.7,N
1506507675.9,286046999.7,N
1506507695.8,286046999.0,N
1506507715.6,286046998.8,N
1506507735.4,286046999.1,N
1506507755.3,286046997.7,N
1506507775.1,286046996.7,N
1506507776.0,286046996.7,N
1506507795.8,286046997.9,N
1506507815.7,286046995.0,Y
1506507835.5,286046997.8,P
1506507855.3,286046993.8,P
1506507875.2,286046994.8,N
1506507895.9,286046993.6,Y
1506507915.7,286046996.9,P
1506507935.6,286046998.9,N
1506507955.4,286046997.0,N
1506507975.2,286046997.3,N
1506507995.1,286046994.9,Y
1506507996.0,286046994.9,P
1506508015.8,286046998.9,N
1506508035.6,286047001.1,N
1506508055.5,286046995.0,N
1506508075.3,286046997.1,N
1506508095.1,286046996.7,N
1506508115.8,286046999.6,N
1506508135.7,286046997.9,N
1506508155.5,286046998.1,N
1506508175.3,286046999.0,N
1506508195.2,286046996.9,N
1506508215.9,286046996.5,N
1506508235.7,286046997.6,N
1506508255.6,286046997.1,N
1506508275.4,286046993.6,Y
1506508295.2,286046999.5,P
1506508315.1,286046996.7,P
1506508316.0,286046996.7,N
1506508335.8,286046996.4,Y
1506508355.6,286046997.5,P
1506508375.5,286046999.1,P
1506508395.3,286046999.1,N
1506508415.1,286046995.3,Y
1506508435.9,286047000.6,P
1506508455.7,286047002.5,N
1506508475.5,286047001.6,N
1506508495.4,286047003.2,N
1506508515.2,286047004.4,N
1506508535.0,286047004.2,N
1506508535.9,286047004.2,N
1506508555.8,286047002.4,N
1506508575.6,286047004.1,N
1506508595.4,286047000.5,N
1506508615.3,286047000.0,N
1506508635.1,286046999.4,N
1506508636.0,286046999.4,N
1506508655.8,286046997.3,N
1506508675.6,286046994.0,N
1506508695.5,286046995.3,N
1506508715.3,286046995.5,N
1506508735.1,286046996.3,N
1506508755.9,286046991.9,N
1506508775.7,286046992.4,N
1506508795.5,286046991.3,N
1506508815.4,286046989.7,N
1506508835.2,286046988.8,N
1506508855.0,286046990.9,N
1506508855.9,286046990.9,N
1506508875.8,286046990.2,N
1506508895.6,286046994.1,N
1506508915.4,286046993.4,N
1506508935.2,286046995.5,N
1506508955.1,286046999.3,N
1506508956.0,286046999.3,N
1506508975.8,286046997.4,N
1506508995.6,286046994.8,N
1506509015.5,286046992.6,N
1506509035.3,286046990.2,N
1506509055.1,286046991.5,N
1506509075.9,286046989.6,N
1506509095.7,286046989.1,N
1506509115.5,286046990.9,N
1506509135.4,286046989.5,N
1506509155.2,286046991.3,N
1506509175.0,286046990.1,N
1506509175.9,286046990.1,Y
1506509195.8,286046997.4,P
1506509215.6,286046999.2,N
1506509235.4,286046998.7,N
1506509255.3,286046997.7,N
1506509275.1,286046996.2,N
1506509276.0,286046996.2,N
1506509295.8,286046994.4,N
1506509315.7,286046990.6,Y
1506509335.5,286046997.9,P
1506509355.3,286046997.3,P
1506509375.2,286046995.7,P
1506509395.9,286046994.4,Y
1506509415.7,286046995.5,P
1506509435.6,286046997.8,P
1506509455.4,286046996.8,P
1506509475.2,286046996.7,Y
1506509495.1,286046999.7,P
1506509496.0,286046999.7,N
1506509515.8,286047000.8,N
1506509535.6,286047000.8,N
1506509555.5,286047000.3,N
1506509575.3,286047001.2,N
1506509595.1,286047000.2,N
1506509615.9,286047000.6,N
1506509635.7,286046998.7,N
1506509655.5,286046998.6,N
1506509675.3,286046998.6,N
1506509695.2,286046998.9,N
1506509715.0,286046996.8,N
1506509715.9,286046996.8,N
1506509735.7,286046999.0,N
1506509755.6,286046999.4,N
1506509775.4,286046999.0,N
1506509795.2,286046996.8,N
1506509815.1,286046999.0,N
1506509816.0,286046999.0,N
1506509835.8,286046999.4,N
1506509855.6,286046995.5,Y
1506509875.5,286046997.7,P
1506509895.3,286046996.6,P
1506509915.1,286046997.9,N
1506509935.9,286046997.5,N
1506509955.7,286046996.3,Y
1506509975.5,286046996.8,P
1506509995.4,286046998.6,N
